This is the latest recevied weather packets stored in our database for station/object N8QYG-1. If no packets are shown the sender has not sent any weather packets the latest 1 day(s).
| Time | Temp. | Humidity | Pressure | Rain* | Wind** | Luminosity | Snow |
|---|---|---|---|---|---|---|---|
| 1777992618 | 15° C | 5% | - | 0 mm | 4.02 m/s, 290° | - | - |
| 1777992019 | 15° C | 5% | - | 0 mm | 4.47 m/s, 301° | - | - |
| 1777991419 | 15.56° C | 5% | - | 0 mm | 2.68 m/s, 325° | - | - |
| 1777990818 | 15.56° C | 5% | - | 0 mm | 3.58 m/s, 288° | - | - |
| 1777990219 | 15.56° C | 5% | - | 0 mm | 2.68 m/s, 294° | - | - |
| 1777989619 | 15.56° C | 6% | - | 0 mm | 3.58 m/s, 251° | - | - |
| 1777989019 | 15.56° C | 6% | - | 0 mm | 2.68 m/s, 241° | - | - |
| 1777988420 | 15° C | 6% | - | 0 mm | 2.24 m/s, 267° | - | - |
| 1777987819 | 14.44° C | 7% | - | 0 mm | 0.45 m/s, 263° | - | - |
| 1777987218 | 15° C | 7% | - | 0 mm | 1.79 m/s, 267° | - | - |
| 1777986618 | 15° C | 7% | - | 0 mm | 2.24 m/s, 279° | - | - |
| 1777986018 | 14.44° C | 7% | - | 0 mm | 1.79 m/s, 246° | - | - |
| 1777985420 | 14.44° C | 8% | - | 0 mm | 0.45 m/s, 251° | - | - |
| 1777984818 | 14.44° C | 8% | - | 0 mm | 1.34 m/s, 262° | - | - |
| 1777984218 | 13.89° C | 8% | - | 0 mm | 1.79 m/s, 254° | - | - |
| 1777983618 | 13.89° C | 8% | - | 0 mm | 1.79 m/s, 234° | - | - |
| 1777983019 | 13.33° C | 8% | - | 0 mm | 2.24 m/s, 265° | - | - |
| 1777982419 | 13.33° C | 8% | - | 0 mm | 1.79 m/s, 249° | - | - |
| 1777981821 | 13.33° C | 8% | - | 0 mm | 1.79 m/s, 254° | - | - |
| 1777981219 | 13.33° C | 8% | - | 0 mm | 0.45 m/s, 265° | - | - |
| 1777980619 | 13.33° C | 8% | - | 0 mm | 0 m/s | - | - |
| 1777980017 | 13.33° C | 8% | - | 0 mm | 1.79 m/s, 259° | - | - |
| 1777979418 | 13.33° C | 8% | - | 0 mm | 0.89 m/s, 246° | - | - |
| 1777978820 | 13.33° C | 8% | - | 0 mm | 0.89 m/s, 232° | - | - |
| 1777978219 | 13.33° C | 8% | - | 0 mm | 1.34 m/s, 225° | - | - |
* Rain latest hour (hover to see other rain measurements)
** Current wind speed in m/s (hover to see current wind gust speed)